This is the latest recevied weather packets stored in our database for station/object KJ5JYX. If no packets are shown the sender has not sent any weather packets the latest 10 day(s).
| Time | Temp. | Humidity | Pressure | Rain* | Wind** | Luminosity | Snow |
|---|---|---|---|---|---|---|---|
| 1777476325 | 26.11° C | 93% | 1014.2 hPa | 0 mm | - | 205 W/m² | - |
| 1777476021 | 26.11° C | 93% | 1013.9 hPa | 0 mm | - | 197 W/m² | - |
| 1777475716 | 26.11° C | 94% | 1014 hPa | 0 mm | - | 188 W/m² | - |
| 1777475413 | 25.56° C | 94% | 1014.1 hPa | 0 mm | - | 197 W/m² | - |
| 1777475108 | 25.56° C | 95% | 1014.2 hPa | 0 mm | - | 171 W/m² | - |
| 1777474805 | 25.56° C | 95% | 1014.1 hPa | 0 mm | - | 129 W/m² | - |
| 1777474501 | 25.56° C | 95% | 1014.4 hPa | 0 mm | - | 105 W/m² | - |
| 1777474197 | 25.56° C | 96% | 1014.1 hPa | 0 mm | - | 186 W/m² | - |
| 1777473895 | 25° C | 96% | 1014.2 hPa | 0 mm | - | 117 W/m² | - |
| 1777473593 | 25° C | 96% | 1013.6 hPa | 0 mm | - | 92 W/m² | - |
| 1777473288 | 25° C | 95% | 1013.9 hPa | 0 mm | - | 47 W/m² | - |
| 1777472984 | 25° C | 95% | 1014.1 hPa | 0 mm | - | 32 W/m² | - |
| 1777472681 | 25° C | 95% | 1014.1 hPa | 0 mm | - | 24 W/m² | - |
| 1777472377 | 25° C | 95% | 1014.2 hPa | 0 mm | - | 31 W/m² | - |
| 1777472076 | 25° C | 95% | 1014 hPa | 0 mm | - | 51 W/m² | - |
| 1777471770 | 25° C | 96% | 1014.1 hPa | 0 mm | - | 53 W/m² | - |
| 1777471467 | 25° C | 96% | 1013.9 hPa | 0 mm | - | 47 W/m² | - |
| 1777471164 | 25° C | 96% | 1014 hPa | 0 mm | - | 76 W/m² | - |
| 1777470861 | 25° C | 96% | 1014 hPa | 0 mm | - | 38 W/m² | - |
| 1777470558 | 25° C | 96% | 1014 hPa | 0 mm | - | 36 W/m² | - |
| 1777470254 | 24.44° C | 96% | 1013.8 hPa | 0 mm | - | 50 W/m² | - |
| 1777469950 | 24.44° C | 96% | 1013.8 hPa | 0 mm | - | 40 W/m² | - |
| 1777469646 | 24.44° C | 96% | 1013.9 hPa | 0 mm | - | 23 W/m² | - |
| 1777469341 | 24.44° C | 96% | 1014 hPa | 0 mm | - | 30 W/m² | - |
| 1777469037 | 24.44° C | 96% | 1013.8 hPa | 0 mm | - | 27 W/m² | - |
* Rain latest hour (hover to see other rain measurements)
** Current wind speed in m/s (hover to see current wind gust speed)